Home > Weather > Toamasina > Past weeks

Flag for Madagascar Weather for the Past 2 Weeks in Toamasina, Madagascar

Now
84 °F

Passing clouds.


Feels Like: 88 °F
Forecast: 69 / 86 °F
Wind: 7 mph from Southeast

Location: Tamatave

Current Time: May 1, 2016 at 4:48:48 PM

Latest Report: May 1, 2016 at 4:00 PM


Visibility: N/A

Pressure: 29.83 "Hg

Humidity: 62%

Dew Point: 70 °F

Location of ToamasinaLocation

Historic Weather in Toamasina — Graph

°F

Toamasina Temperature Yesterday

Maximum temperature yesterday: 86 °F (at 10:00 AM)
Minimum temperature yesterday: 70 °F (at 1:00 AM)
Average temperature yesterday: 77 °F

High & Low Weather Summary for the Past Weeks

 TemperatureHumidityPressure
High88 °F (Apr 17, 3:00 PM)100% (Apr 22, 5:00 AM)30.07 "Hg (Apr 22, 5:00 AM)
Low68 °F (May 1, 6:00 AM)55% (Apr 29, 12:00 PM)29.83 "Hg (Apr 20, 4:00 PM)
Average79 °F85%29.94 "Hg
* Reported Apr 16 3:00 PM — May 1 3:00 PM, Toamasina, Weather by CustomWeather, © 2016

Note: Actual official high and low records may vary slightly from our data, if they occured in-between our weather recording intervals... More about our weather records

Advertising

Toamasina Weather History for the Previous 24 Hours

Scroll right to see more
 ConditionsComfort  
Time TempWeatherWind HumidityBarometerVisibility
3:00 PM
Sun, May 1
84 °FPassing clouds.9 mph66%29.83 "HgN/A
2:00 PM84 °FPassing clouds.9 mph66%29.86 "HgN/A
1:00 PM84 °FPassing clouds.9 mph74%29.86 "HgN/A
12:00 PM84 °FScattered clouds.7 mph70%29.89 "HgN/A
11:00 AM84 °FScattered clouds.7 mph58%29.92 "HgN/A
10:00 AM86 °FScattered clouds.5 mph59%29.92 "HgN/A
9:00 AM81 °FScattered clouds.5 mph74%29.95 "HgN/A
8:00 AM75 °FPassing clouds.5 mph89%29.95 "HgN/A
7:00 AM72 °FPassing clouds.No wind94%29.92 "HgN/A
6:00 AM68 °FPassing clouds.No wind94%29.92 "HgN/A
5:00 AM70 °FPassing clouds.No wind94%29.89 "HgN/A
4:00 AM70 °FPassing clouds.No wind94%29.89 "HgN/A
3:00 AM70 °FPassing clouds.No wind94%29.89 "HgN/A
2:00 AM70 °FPassing clouds.No wind94%29.92 "HgN/A
1:00 AM72 °FPassing clouds.No wind94%29.95 "HgN/A
12:00 AM72 °FPassing clouds.No wind94%29.95 "HgN/A
11:00 PM
Sat, Apr 30
73 °FPassing clouds.No wind94%29.95 "HgN/A
10:00 PM73 °FPassing clouds.No wind94%29.95 "HgN/A
9:00 PM73 °FPassing clouds.No wind94%29.95 "HgN/A
8:00 PM73 °FPassing clouds.No wind94%29.92 "HgN/A
7:00 PM75 °FPassing clouds.No wind89%29.92 "HgN/A
6:00 PM79 °FPassing clouds.No wind79%29.92 "HgN/A
5:00 PM82 °FPassing clouds.7 mph70%29.89 "HgN/A
4:00 PM84 °FPassing clouds.9 mph66%29.89 "HgN/A
Weather by CustomWeather, © 2016

See weather overviewHow to use our weather pages